Location: Newark
(44.9861°N, 0.2536°E)
Time: 20:07:45
(UTC+00:00)

HuskySat-1 - Pass Details

Date: 12 July 2020
Orbit: 457 x 471 km, 51.6° (Epoch: 11 August)

Event Time Altitude Azimuth Distance (km) Brightness Sun altitude
Exits shadow 02:22:22 - 285° (WNW) 2,093 ? -16.1°
Reaches altitude 10° 02:23:41 10° 293° (WNW) 1,612 ? -16.0°
Maximum altitude 02:26:53 28° 354° (N) 891 ? -15.7°
Drops below altitude 10° 02:30:04 10° 56° (NE) 1,607 ? -15.3°
Sets 02:32:25 0° 68° (ENE) 2,479 ? -15.1°
